Weather History for Aswan, Egypt

Change the Weather History Date:

Tuesday, November 29, 2011

  Actual Average Record
Temperature  
Mean Temperature 62 °F -  
Max Temperature 75 °F 73 °F 95 °F (2005)
Min Temperature 50 °F 51 °F 50 °F (2004)
Degree Days  
Heating Degree Days 2    
Growing Degree Days 12 (Base 50)    
Moisture  
Dew Point 40 °F    
Average Humidity 44    
Maximum Humidity 63    
Minimum Humidity 17    
Precipitation  
Precipitation 0.00 in 0.00 in - ()
Sea Level Pressure  
Sea Level Pressure 30.12 in    
Wind  
Wind Speed 3 mph ()    
Max Wind Speed 13 mph    
Max Gust Speed -    
Visibility 6.0 miles    
Events      
Averages and records for this station are not official NWS values.
T = Trace of Precipitation, MM = Missing Value Source: Averaged Metar Reports

Daily Weather History Graph

Daily Weather History Graph

Search for Another Location

Airport:

Trip Planner

Search our weather history database for the weather conditions in past years. The results will help you decide how hot, cold, wet, or windy it might be!

Date:

Astronomy

Nov. 29, 2011 Rise Set
Actual Time 6:12 AM EET 5:00 PM EET
Civil Twilight 5:48 AM EET 5:25 PM EET
Nautical Twilight 5:20 AM EET 5:52 PM EET
Astronomical Twilight 4:53 AM EET 6:20 PM EET
Moon 9:55 AM EET (11/29) 9:20 PM EET (11/29)
Length of Visible Light 11h 36m
Length of Day
10h 47m
Waxing Crescent, 21% of the Moon is Illuminated
Nov 29
Waxing Crescent
Dec 2
First Quarter
Dec 10
Full
Dec 18
Last Quarter
Dec 24
New

Hourly Weather History & Observations

Time (EET) Temp. Dew Point Humidity Pressure Visibility Wind Dir Wind Speed Gust Speed Precip Events Conditions
12:00 AM 57.2 °F 42.8 °F 59% 30.09 in - Calm Calm - N/A   Clear
1:00 AM 55.4 °F 42.8 °F 63% 30.09 in - Calm Calm - N/A   Clear
2:00 AM 56 °F 41 °F 45% 30.12 in 6 mi NNW 6.9 mph - -  
2:00 AM 55.4 °F 41.0 °F 58% 30.09 in - North 6.9 mph - N/A   Clear
3:00 AM 53.6 °F 41.0 °F 62% 30.09 in - NNW 4.6 mph - N/A   Clear
4:00 AM 53.6 °F 41.0 °F 62% 30.09 in - NNW 4.6 mph - N/A   Clear
8:00 AM 56 °F 45 °F 57% 30.20 in 6 mi North 9.2 mph - -  
9:00 AM 59.0 °F 44.6 °F 59% 30.21 in - North 12.7 mph - N/A   Clear
10:00 AM 62.6 °F 44.6 °F 52% 30.21 in - North 9.2 mph - N/A   Clear
11:00 AM 66.2 °F 44.6 °F 46% 30.18 in - North 8.1 mph - N/A   Clear
12:00 PM 69.8 °F 44.6 °F 40% 30.15 in - NE 3.5 mph - N/A   Clear
1:00 PM 73.4 °F 42.8 °F 33% 30.12 in - Calm Calm - N/A   Clear
2:00 PM 74 °F 38 °F 17% 30.11 in 6 mi Calm Calm - -  
2:00 PM 73.4 °F 39.2 °F 29% 30.12 in - Calm Calm - N/A   Clear
8:00 PM 65 °F 34 °F 20% 30.15 in 6 mi NNW 4.6 mph - -  
8:00 PM 64.4 °F 33.8 °F 32% 29.89 in - NNW 4.6 mph - N/A   Clear
9:00 PM 62.6 °F 33.8 °F 34% 30.15 in - NNW 4.6 mph - N/A   Clear
10:00 PM 62.6 °F 35.6 °F 37% 30.15 in - Calm Calm - N/A   Clear
11:00 PM 59.0 °F 33.8 °F 39% 30.12 in - Calm Calm - N/A   Clear